Voltar ao catálogo

FENGYUN 1C DEB

AtivoPO
NORAD 31419·DEBRIS·🇨🇳 China

Lançado May 10, 1999 de Taiyuan Satellite Launch Center

Loading…

Próximas Passagens (próximas 24 horas)

TLE

AtualizadoSource: Space-Track

Época: Sep 14, 2026, 08:44 UTC

1 31419U 99025BTF 26257.36395799  .00006735  00000-0  97379-3 0  9995
2 31419  98.7833  98.4203 0038522  54.1824 306.2953 14.76035038690873

Acompanhe FENGYUN 1C DEB em tempo real com AllMySat

Download on the App Store